EDRS-C

Last updated on Sat Apr 13 2024 01:02:39 GMT+0100 (British Summer Time)

1 44475U 19049A 24103.35495450 .00000146 00000+0 00000+0 0 9991 2 44475 0.0692 253.1797 0000842 136.8762 329.9407 1.00272339 17216
UTC large
Height (km)
Speed (km/s)
/
Latitude / Longitude
Inclination (degrees)
Orbital Period (minutes)
Azimuth
Elevation
Range (km)
Doppler Factor

Next 0 passes for location: London (51.5072 / 0.1276)

Sorry there are no passes over London.